[[{"header":{"parameterUnit":"m.s-1","parameterCategory":1,"la1":30.2991,"la2":30.254,"lo1":-89.0895,"lo2":-89.0444,"dy":0.0017,"dx":0.0017,"nx":28,"ny":28,"refTime":"2024-12-23T03:00:00:Z","depth":0,"parameterNumber":2,"parameterNumberName":"U-component_of_WINDS"},"data":[0,0,0,0,0,0,0,0,0,0,0,0,0,0,0,0,0,0,0,0,0,0,0,0,0,0,0,0,0,0,0,0,0,0,0,0,0,0,0,0,0,0,0,0,0,0,0,0,0,0,0,0,0,0,0,0,0,0,-3.9626,-3.9628,0,-3.9777,-3.9779,-3.9781,-3.9719,-3.9716,-3.9712,-3.9709,-3.9866,-3.9873,-3.9881,0,0,0,0,0,0,0,0,0,0,0,0,0,-3.9289,-3.9296,-3.9626,-3.9628,-3.963,-3.9777,-3.9779,-3.9781,-3.972,-3.9716,-3.9711,-3.9707,-3.9864,-3.9872,-3.9881,0,0,0,0,0,0,0,0,0,0,0,0,0,-3.9438,-3.9298,-3.9626,-3.9617,-3.9618,-3.9776,-3.9779,-3.9781,-3.9721,-3.9716,-3.971,-3.9705,-3.9861,-3.9872,-3.9883,-4.0059,0,0,-3.9917,-3.9922,0,0,0,0,0,0,0,0,-3.9429,-3.945,-3.9617,-3.9618,-3.9619,-3.9724,-3.9718,-3.9875,-3.9722,-3.9682,-3.9709,-3.9703,-3.9823,-3.9837,-3.9877,-4.0067,-4.0073,-3.9918,-3.9925,-3.993,-3.9933,0,0,0,0,0,0,0,-3.9419,-3.9443,-3.9686,-3.9619,-3.9621,-3.9607,-3.9622,-3.9747,-3.9781,-3.9685,-3.9681,-3.97,-3.9823,-3.9867,-3.9881,-4.0076,-3.9918,-3.9928,-3.9935,-3.9939,-4.0421,-4.0426,0,0,0,0,0,0,-3.9408,-3.9435,-3.9681,-3.969,-3.9509,-3.9617,-3.9634,-3.9696,-3.9779,-3.9787,-3.9704,-3.9696,-3.985,-3.9867,-3.9886,-4.01,-3.993,-3.994,-3.9947,-4.0415,-4.0422,-4.0428,0,0,0,0,0,0,-3.9401,-3.9431,-3.9675,-3.9562,-3.9592,-3.9629,-3.9698,-3.9702,-3.9745,-3.9794,-3.98,-3.9742,-3.9846,-3.987,-4.0017,-4.0105,-3.9945,-3.9955,-4.0407,-4.0417,-4.0425,-4.053,0,0,0,0,0,0,-3.9392,-3.9428,-3.9495,-3.9564,-3.9598,-3.9803,-3.9704,-3.9708,-3.9764,-3.9756,-3.9831,-3.9838,-3.9844,-4.0001,-4.0028,-4.0118,-3.9964,-4.04,-4.0412,-4.0422,-4.0519,-4.0541,-4.0561,0,0,0,0,0,-3.938,-3.9518,-3.9499,-3.9529,-3.9682,-3.9808,-3.9828,-3.9831,-3.9772,-3.984,-3.9871,-3.9836,-4.009,-4.0016,-4.0047,-4.0141,-4.0394,-4.0408,-4.0421,-4.0509,-4.0537,-4.056,0,0,0,0,0,0,-3.946,-3.9527,-3.9506,-3.9671,-3.9734,-3.9798,-3.9883,-3.986,-3.9942,-3.993,-3.9931,-3.9949,-4.0101,-4.0135,-4.0051,-4.0318,-4.0234,-4.0254,-4.029,-4.0317,-4.0337,-4.0327,-3.9974,0,0,0,0,0,-3.9496,-3.9592,-3.9646,-3.9786,-3.9819,-3.9846,-3.9901,-3.9898,-3.9964,-3.9991,-4.0033,-4.0099,-4.0194,-4.0257,-4.0347,-4.0523,-4.054,-4.0603,-4.0624,-4.0641,-4.0659,-4.0757,-4.0787,-4.0473,-4.0473,-4.0473,0,0,-3.9573,-3.9622,-3.9682,-3.9804,-3.9852,-3.9953,-3.9869,-3.9979,-4.0054,-4.0008,-4.015,-4.0183,-4.0257,-4.042,-4.0494,-4.0454,-4.0749,-4.0658,-4.0671,-4.068,-4.0774,-4.0804,-4.083,-4.0482,-4.0481,-4.0479,0,0,-3.9765,-3.9811,-3.9934,-3.9985,-4.0059,-4.0077,-4.0106,-4.0174,-4.0194,-4.0336,-4.0304,-4.0394,-4.0557,-4.0612,-4.0662,-4.0877,-4.0849,-4.0906,-4.1016,-4.1112,-4.1137,-4.1159,-4.1238,-4.1266,-4.0924,-4.0924,-4.0924,0,-3.9852,-4.0001,-4.0,-4.0113,-4.0169,-4.0131,-4.0257,-4.0306,-4.0407,-4.0447,-4.0399,-4.0605,-4.0652,-4.0829,-4.0881,-4.0921,-4.0957,-4.0898,-4.1133,-4.1155,-4.1176,-4.1251,-4.1281,-4.0931,-4.093,-4.0929,-4.0928,0,-4.0105,-4.021,-4.03,-4.0399,-4.0464,-4.0583,-4.0601,-4.0668,-4.0659,-4.0682,-4.0829,-4.0884,-4.0986,-4.1027,-4.1019,-4.1204,-4.1177,-4.1131,-4.1047,-4.1212,-4.1284,-4.1312,-4.094,-4.0938,-4.0936,-4.0934,0,0,-4.0352,-4.0449,-4.0483,-4.0528,-4.0608,-4.069,-4.0808,-4.0907,-4.0965,-4.1036,-4.1137,-4.1276,-4.1235,-4.1292,-4.129,-4.1374,-4.1544,-4.1319,-4.1321,-4.1361,-4.1754,-4.1789,-4.1822,-4.1525,-4.153,-4.1535,-4.1748,0,-4.0553,-4.0759,-4.0762,-4.0952,-4.105,-4.1016,-4.1119,-4.1181,-4.1205,-4.1293,-4.132,-4.142,-4.1358,-4.1392,-4.1473,-4.1506,-4.1623,-4.149,-4.1621,-4.1626,-4.1605,-4.1859,-4.1896,-4.2094,-4.1776,-4.178,-4.1784,0,-4.0814,-4.0894,-4.1094,-4.1162,-4.1203,-4.1295,-4.1388,-4.1471,-4.1541,-4.1553,-4.1617,-4.1603,-4.1725,-4.1636,-4.1806,-4.1716,-4.177,-4.1794,-4.1802,-4.1816,-4.1716,-4.1882,-4.2157,-4.2188,-4.1827,-4.1823,-4.182,0,-4.0977,-4.1134,-4.1275,-4.1314,-4.1397,-4.1463,-4.1501,-4.1565,-4.1625,-4.1706,-4.1745,-4.1839,-4.1891,-4.1965,-4.1978,-4.1912,-4.215,-4.2061,-4.2166,-4.2166,-4.2219,-4.2216,-4.2509,-4.225,-4.2249,-4.2249,-4.2248,0,-4.1202,-4.1326,-4.135,-4.1436,-4.1575,-4.1578,-4.1716,-4.1749,-4.1807,-4.19,-4.1876,-4.1965,-4.1976,-4.2068,-4.2079,-4.222,-4.2243,-4.2258,-4.226,-4.2261,-4.226,-4.2298,-4.2285,-4.2257,-4.2255,-4.2253,-4.2252,0,-4.1408,-4.1429,-4.158,-4.1646,-4.1665,-4.1765,-4.1822,-4.1906,-4.1928,-4.2047,-4.2076,-4.2111,-4.2219,-4.2239,-4.2365,-4.2373,-4.2542,-4.2528,-4.2518,-4.2518,-4.2622,-4.2612,-4.2951,-4.2997,-4.2706,-4.2709,-4.2711,0,-4.1551,-4.1646,-4.1722,-4.1783,-4.1824,-4.1922,-4.1983,-4.199,-4.2055,-4.2143,-4.2217,-4.2322,-4.2406,-4.258,-4.2618,-4.2716,-4.2706,-4.2818,-4.2721,-4.272,-4.2711,-4.2706,-4.2717,-4.2838,-4.2841,-4.2843,-4.2846,0,-4.1804,-4.1809,-4.1898,-4.1992,-4.2065,-4.2139,-4.2209,-4.2261,-4.2277,-4.2352,-4.2461,-4.2527,-4.2657,-4.2762,-4.286,-4.29,-4.2877,-4.2876,-4.2906,-4.2909,-4.29,-4.2909,-4.2572,-4.2868,-4.2866,-4.2864,-4.2863,-4.2862,-4.1984,-4.2068,-4.2135,-4.2236,-4.2289,-4.2356,-4.2438,-4.2471,-4.2562,-4.2668,-4.2667,-4.2788,-4.2857,-4.2985,-4.3032,-4.3128,-4.3092,-4.3135,-4.3146,-4.3157,-4.3168,-4.2883,-4.3145,-4.3145,-4.3144,-4.3143,-4.3143,0,-4.2237,-4.2279,-4.2371,-4.247,-4.255,-4.252,-4.2596,-4.2666,-4.2772,-4.2838,-4.2922,-4.3049,-4.3151,-4.3198,-4.3299,-4.3367,-4.3359,-4.3394,-4.339,-4.34,-4.3193,-4.3158,-4.3399,-4.3399,-4.3398,-4.3398,-4.3398,-4.3398,-4.2379,-4.252,-4.2534,-4.2702,-4.2742,-4.286,-4.2907,-4.2969,-4.3022,-4.3165,-4.325,-4.3279,-4.3338,-4.3444,-4.3537,-4.3548,-4.3588,-4.3628,-4.3635,-4.344,-4.3414,-4.339,-4.3357,-4.3636,-4.3636,-4.3834,-4.3836,-4.3838]},{"header":{"parameterUnit":"m.s-1","parameterCategory":1,"la1":30.2991,"la2":30.254,"lo1":-89.0895,"lo2":-89.0444,"dy":0.0017,"dx":0.0017,"nx":28,"ny":28,"refTime":"2024-12-23T03:00:00:Z","depth":0,"parameterNumber":3,"parameterNumberName":"V-component_of_WINDS"},"data":[0,0,0,0,0,0,0,0,0,0,0,0,0,0,0,0,0,0,0,0,0,0,0,0,0,0,0,0,0,0,0,0,0,0,0,0,0,0,0,0,0,0,0,0,0,0,0,0,0,0,0,0,0,0,0,0,0,0,-1.4074,-1.4074,0,-1.4054,-1.4054,-1.4054,-1.4018,-1.4017,-1.4016,-1.4016,-1.3996,-1.3996,-1.3996,0,0,0,0,0,0,0,0,0,0,0,0,0,-1.4081,-1.4081,-1.4074,-1.4074,-1.4074,-1.4054,-1.4054,-1.4054,-1.4018,-1.4017,-1.4016,-1.4015,-1.3996,-1.3996,-1.3996,0,0,0,0,0,0,0,0,0,0,0,0,0,-1.4071,-1.4081,-1.4074,-1.4054,-1.4051,-1.4054,-1.4054,-1.4054,-1.4018,-1.4017,-1.4016,-1.4015,-1.3996,-1.3996,-1.3996,-1.4018,0,0,-1.3996,-1.3997,0,0,0,0,0,0,0,0,-1.4072,-1.4071,-1.4057,-1.4055,-1.4053,-1.4037,-1.4049,-1.4042,-1.4018,-1.4031,-1.4016,-1.4014,-1.401,-1.4009,-1.4008,-1.4017,-1.4016,-1.3996,-1.3997,-1.3997,-1.3997,0,0,0,0,0,0,0,-1.4072,-1.4071,-1.4066,-1.4057,-1.4054,-1.4045,-1.4042,-1.4047,-1.4027,-1.403,-1.4027,-1.4025,-1.4009,-1.4008,-1.4007,-1.4016,-1.3996,-1.3997,-1.3997,-1.3997,-1.404,-1.4041,0,0,0,0,0,0,-1.4076,-1.4072,-1.4067,-1.4066,-1.406,-1.4046,-1.4043,-1.4043,-1.4027,-1.4023,-1.4026,-1.4023,-1.4008,-1.4007,-1.4006,-1.403,-1.3997,-1.3997,-1.3997,-1.4039,-1.404,-1.4041,0,0,0,0,0,0,-1.4076,-1.4076,-1.4068,-1.4068,-1.4067,-1.4047,-1.4048,-1.4044,-1.4042,-1.4024,-1.402,-1.4028,-1.4007,-1.4006,-1.4015,-1.4029,-1.3997,-1.3997,-1.4038,-1.4039,-1.4041,-1.4078,0,0,0,0,0,0,-1.4077,-1.4076,-1.4085,-1.4069,-1.4067,-1.4077,-1.4048,-1.4044,-1.4043,-1.4039,-1.4025,-1.4022,-1.4006,-1.4015,-1.4015,-1.4028,-1.3997,-1.4036,-1.4038,-1.404,-1.4075,-1.408,-1.4085,0,0,0,0,0,-1.4077,-1.4096,-1.4085,-1.4085,-1.4077,-1.4078,-1.4077,-1.4058,-1.4044,-1.4052,-1.404,-1.4022,-1.4027,-1.4016,-1.4016,-1.4029,-1.4035,-1.4038,-1.404,-1.4073,-1.4079,-1.4084,0,0,0,0,0,0,-1.4115,-1.4094,-1.4081,-1.4096,-1.4089,-1.4072,-1.4082,-1.4066,-1.4063,-1.406,-1.4037,-1.4034,-1.4046,-1.4038,-1.4027,-1.4049,-1.4028,-1.4031,-1.4053,-1.4059,-1.4064,-1.4065,-1.3997,0,0,0,0,0,-1.4125,-1.4128,-1.4109,-1.4124,-1.4121,-1.4102,-1.4102,-1.4088,-1.408,-1.4077,-1.4065,-1.4058,-1.4058,-1.4058,-1.4057,-1.4074,-1.407,-1.4083,-1.4088,-1.4092,-1.4094,-1.4101,-1.4106,-1.4049,-1.4049,-1.4049,0,0,-1.4146,-1.4134,-1.4138,-1.4131,-1.4124,-1.4127,-1.41,-1.4104,-1.4106,-1.4077,-1.4085,-1.4076,-1.4066,-1.4079,-1.4084,-1.4073,-1.4109,-1.4095,-1.4098,-1.4098,-1.4104,-1.4109,-1.4114,-1.4051,-1.405,-1.405,0,0,-1.4185,-1.4177,-1.4188,-1.4181,-1.417,-1.4157,-1.416,-1.4145,-1.4138,-1.4144,-1.4123,-1.4124,-1.4125,-1.4118,-1.4115,-1.415,-1.4134,-1.4151,-1.4176,-1.4183,-1.4187,-1.4191,-1.4203,-1.4207,-1.4153,-1.4153,-1.4153,0,-1.4212,-1.4216,-1.4195,-1.4201,-1.4198,-1.4172,-1.4182,-1.4177,-1.4166,-1.4165,-1.4153,-1.4152,-1.4143,-1.4153,-1.4162,-1.416,-1.4162,-1.4152,-1.4188,-1.4192,-1.4195,-1.4206,-1.4211,-1.4155,-1.4155,-1.4155,-1.4154,0,-1.4249,-1.4252,-1.4262,-1.4252,-1.425,-1.4258,-1.4239,-1.424,-1.4226,-1.4214,-1.422,-1.4209,-1.4205,-1.4206,-1.4193,-1.4214,-1.4208,-1.4192,-1.4171,-1.4203,-1.4213,-1.4217,-1.4158,-1.4157,-1.4157,-1.4156,0,0,-1.4312,-1.429,-1.4294,-1.4288,-1.4274,-1.4276,-1.4282,-1.4277,-1.4278,-1.4271,-1.4276,-1.4276,-1.4261,-1.4257,-1.4243,-1.425,-1.4277,-1.4233,-1.4233,-1.4241,-1.4298,-1.4309,-1.4314,-1.4266,-1.4266,-1.4267,-1.4298,0,-1.4348,-1.4358,-1.4339,-1.4353,-1.4354,-1.4329,-1.4334,-1.4326,-1.4314,-1.4314,-1.4302,-1.4302,-1.4283,-1.428,-1.4285,-1.4272,-1.4288,-1.427,-1.4269,-1.4269,-1.4272,-1.432,-1.4332,-1.4362,-1.4302,-1.4303,-1.4303,0,-1.4391,-1.4386,-1.44,-1.4383,-1.4383,-1.4389,-1.4382,-1.4382,-1.4371,-1.4363,-1.4358,-1.4341,-1.4345,-1.4325,-1.433,-1.4319,-1.4317,-1.4311,-1.4311,-1.431,-1.4288,-1.4319,-1.4371,-1.4376,-1.4309,-1.4309,-1.4308,0,-1.4435,-1.4431,-1.4439,-1.4435,-1.4416,-1.442,-1.4413,-1.4401,-1.4399,-1.4393,-1.4391,-1.4386,-1.4383,-1.4379,-1.4361,-1.4348,-1.4368,-1.4347,-1.4361,-1.4361,-1.4366,-1.4366,-1.4418,-1.4366,-1.4366,-1.4366,-1.4366,0,-1.4476,-1.4486,-1.4458,-1.4462,-1.4472,-1.445,-1.446,-1.4449,-1.4439,-1.4441,-1.4418,-1.442,-1.4396,-1.4396,-1.4381,-1.4387,-1.4387,-1.4379,-1.4375,-1.4381,-1.4382,-1.4379,-1.4376,-1.4367,-1.4367,-1.4367,-1.4366,0,-1.4527,-1.4508,-1.4515,-1.4496,-1.4491,-1.4499,-1.4483,-1.4486,-1.4473,-1.4475,-1.4475,-1.4454,-1.4452,-1.4433,-1.4427,-1.4418,-1.4429,-1.4421,-1.4432,-1.443,-1.4444,-1.4443,-1.4496,-1.4502,-1.4447,-1.4447,-1.4448,0,-1.4554,-1.456,-1.4542,-1.4541,-1.4534,-1.4534,-1.4531,-1.451,-1.4508,-1.4495,-1.45,-1.4496,-1.4491,-1.4489,-1.4474,-1.4468,-1.446,-1.4479,-1.4459,-1.4464,-1.4459,-1.4459,-1.4459,-1.4483,-1.4484,-1.4484,-1.4485,0,-1.4604,-1.4595,-1.4592,-1.4585,-1.4582,-1.4576,-1.4569,-1.457,-1.4546,-1.4545,-1.4542,-1.4538,-1.4531,-1.4527,-1.4519,-1.4511,-1.4494,-1.4491,-1.4494,-1.45,-1.4506,-1.4502,-1.4443,-1.449,-1.449,-1.4489,-1.4489,-1.4489,-1.4643,-1.4647,-1.4635,-1.4632,-1.4623,-1.4617,-1.4618,-1.4605,-1.4602,-1.4595,-1.4582,-1.4581,-1.4569,-1.4556,-1.4549,-1.4548,-1.4538,-1.4542,-1.4543,-1.4544,-1.4547,-1.4506,-1.4546,-1.4546,-1.4546,-1.4546,-1.4546,0,-1.4692,-1.4682,-1.4679,-1.4669,-1.4667,-1.465,-1.4641,-1.464,-1.4639,-1.4629,-1.4625,-1.4621,-1.4617,-1.46,-1.4594,-1.4596,-1.4588,-1.4595,-1.4594,-1.4593,-1.4557,-1.4555,-1.4602,-1.4602,-1.4602,-1.4602,-1.4602,-1.4602,-1.4716,-1.4722,-1.4711,-1.4711,-1.4701,-1.47,-1.4696,-1.4689,-1.4681,-1.4678,-1.4674,-1.4663,-1.465,-1.4643,-1.4638,-1.4633,-1.4631,-1.4641,-1.4634,-1.4601,-1.4595,-1.459,-1.4588,-1.4641,-1.4641,-1.4669,-1.467,-1.467]}]]